Location: Krakow
(50.0830°N, 19.9170°E)
Time: 08:10:49
(UTC+02:00)

Tiros 1 despin weight - Pass Details

Date: 15 March 2026
Orbit: 555 x 592 km, 48.2° (Epoch: 18 April)

Event Time Altitude Azimuth Distance (km) Brightness Sun altitude
Rises 10:47:57 0° 278° (W) 2,786 ? 36.2°
Reaches altitude 10° 10:50:49 10° 259° (W) 1,876 ? 36.4°
Maximum altitude 10:53:41 18° 217° (SW) 1,438 ? 36.5°
Drops below altitude 10° 10:56:32 10° 175° (S) 1,853 ? 36.6°
Sets 10:59:21 0° 155° (SSE) 2,738 ? 36.8°
